Regional Weather Roundup
Issued by NWS Kansas City/Pleasant Hill, MO

Home | Current Version | Previous Version | Graphics & Text | Print | Product List | Glossary Off
Versions: 1 2 3 4 5 6 7 8 9 10 11 12 13 14 15 16 17 18 19 20 21 22 23 24 25 26 27 28 29 30 31 32 33 34 35 36 37 38 39 40 41 42 43 44 45 46 47 48 49 50

545
ASUS43 KEAX 241010
RWREAX

WEATHER ROUNDUP FOR EASTERN KANSAS AND NORTHWEST MISSOURI
NATIONAL WEATHER SERVICE KANSAS CITY/PLEASANT HILL MO
500 AM CDT MON APR 24 2017

KSZ040-057-103>105-MOZ028-029-037-043-241100-
...KANSAS CITY METROPOLITAN AREA...

CITY           SKY/WX    TMP DP  RH WIND       PRES   REMARKS
K.C. INTL      CLOUDY    45  37  73 S10       29.91F
K.C. DOWNTOWN  CLOUDY    51  42  71 CALM      29.92S
LEES SUMMIT    CLOUDY    50  37  61 S9        29.93F
OLATHE - IXD   CLOUDY    42  37  82 S7        29.93F
OLATHE - OJC   CLOUDY    46  39  76 S3        29.93S
LAWRENCE       CLOUDY    43  40  89 E6        29.92S

$$

MOZ001>008-011>017-020>025-030>033-038>040-044>046-053-054-241100-
...NORTHERN AND CENTRAL MISSOURI...

CITY           SKY/WX    TMP DP  RH WIND       PRES   REMARKS
ST. JOSEPH     CLOUDY    46  42  86 S3        29.90F
MOSBY          CLOUDY    41  39  93 CALM      29.93S
WHITEMAN AFB   CLEAR     42  42  99 S3        29.93F
CLINTON        CLOUDY    41  41 100 CALM      29.95F
SEDALIA        NOT AVBL
WARSAW         NOT AVBL
CHILLICOTHE      N/A     42  38  85 CALM      29.94F
KIRKSVILLE     CLOUDY    50  28  42 S6        29.95F

$$

MOZ041-047>049-056>058-063>065-088>090-097-241100-
...EASTERN AND SOUTHERN MISSOURI...

CITY           SKY/WX    TMP DP  RH WIND       PRES   REMARKS
ST. LOUIS INTL PTCLDY    47  36  65 CALM      29.95F
SPIRIT OF STL  CLEAR     37  36  96 W3        29.95S
COLUMBIA       CLOUDY    51  28  41 E6        29.95S
JEFFERSON CITY CLOUDY    41  36  82 CALM      29.96S
ROLLA          CLOUDY    41  33  73 E3        29.94S
OSAGE BEACH    CLOUDY    37  36  96 CALM      29.97R
SPRINGFIELD    CLEAR     42  35  76 CALM      29.96R
BRANSON        CLEAR     41  37  87 CALM      29.97R
JOPLIN         CLEAR     40  39  97 CALM      29.97S
WEST PLAINS    CLEAR     45  31  58 NE3       29.95S

$$

IAZ060-094-KSZ022-034>040-054-083-096-NEZ052-066-093-241100-
...KANSAS...SOUTHEAST NEBRASKA AND IOWA...

CITY           SKY/WX    TMP DP  RH WIND       PRES   REMARKS
TOPEKA         CLOUDY    46  40  79 SE8       29.89F
MANHATTAN      CLOUDY    51  39  63 S6        29.85F
EMPORIA        CLEAR     44  41  89 SE10      29.89F
CHANUTE        CLEAR     40  38  93 SE5       29.95R
WICHITA        CLEAR     48  40  73 S14       29.87S
OMAHA          CLOUDY    54  36  50 S14       29.81F
LINCOLN        CLOUDY    52  37  56 S15       29.79F
FALLS CITY     PTCLDY    44  37  76 SE7       29.86F
LAMONI         CLOUDY    48  33  56 S7        29.90F
DES MOINES     PTCLDY    49  33  54 S10       29.90S

$$





USA.gov is the U.S. government's official web portal to all federal, state and local government web resources and services.